Date String (YYYY-MM-DD hh:mm:ss) UTC,Instrument flags,Ambient pressure (hPa),Sample flow (lpm),Bypass flow (lpm),Sample temperature (°C),Ambient temperature (°C),ASC tube jacket temperature (°C),LED temperature (°C),Box temperature (°C),Sample RH (%),Span deviation,Mass concentration (μg/m³),Mass concentration (μg/m³),Mass concentration (μg/m³)
DateTimeUTC,F1_M11,P_M11,Q1_M11,Q2_M11,T1_M11,T2_M11,T3_M11,T4_M11,T5_M11,U1_M11,ZSPAN_M11,X0_M11,X2_M11,X1_M11
2022-10-05 00:00:00,,0829.9,5.00,0.00,27.2,25.8,00.0,35.9,29.1,28.0,-002.7,0013.04,0010.09,0009.79
2022-10-05 00:01:00,,0829.9,4.99,0.00,27.2,25.8,00.0,35.9,29.1,28.0,-002.9,0013.17,0010.16,0009.86
2022-10-05 00:02:00,,0829.9,5.00,0.00,27.2,25.8,00.0,35.9,29.1,28.0,-002.9,0013.26,0010.24,0009.92
2022-10-05 00:03:00,,0830.0,4.99,0.00,27.2,25.8,00.0,35.9,29.1,28.3,-002.7,0013.03,0010.29,0009.98
2022-10-05 00:04:00,,0830.1,5.01,0.00,27.2,25.8,00.0,35.9,29.1,28.6,-002.5,0013.14,0010.33,0010.02
2022-10-05 00:05:00,,0830.1,4.98,0.00,27.2,25.7,00.0,35.9,29.1,28.8,-002.5,0013.19,0010.39,0010.05
2022-10-05 00:06:00,,0830.1,5.01,0.00,27.2,25.7,00.0,35.9,29.1,28.9,-002.4,0013.18,0010.42,0010.06
2022-10-05 00:07:00,,0830.1,4.99,0.00,27.2,25.7,00.0,35.9,29.1,28.9,-002.3,0013.19,0010.42,0010.03
2022-10-05 00:08:00,,0830.1,5.01,0.00,27.2,25.7,00.0,35.9,29.1,28.9,-002.3,0013.13,0010.36,0009.99
2022-10-05 00:09:00,,0830.1,4.99,0.00,27.2,25.7,00.0,35.9,29.1,28.7,-002.3,0013.17,0010.37,0009.98
2022-10-05 00:10:00,,0830.1,5.00,0.00,27.2,25.7,00.0,35.9,29.0,28.6,-002.3,0013.26,0010.35,0009.95
2022-10-05 00:11:00,,0830.0,4.99,0.00,27.2,25.6,00.0,35.9,29.0,28.8,-002.1,0013.63,0010.30,0009.90
2022-10-05 00:12:00,,0830.1,5.01,0.00,27.2,25.7,00.0,35.9,29.0,28.9,-001.8,0013.50,0010.23,0009.83
2022-10-05 00:13:00,,0830.1,4.99,0.00,27.2,25.7,00.0,35.9,29.1,28.9,-001.7,0013.41,0010.16,0009.78
2022-10-05 00:14:00,,0830.1,5.01,0.00,27.2,25.7,00.0,35.9,29.1,29.0,-001.5,0013.47,0010.14,0009.74
2022-10-05 00:15:00,,0830.2,4.99,0.00,27.2,25.7,00.0,35.9,29.1,29.0,-001.3,0013.47,0010.13,0009.73
2022-10-05 00:16:00,,0830.1,5.01,0.00,27.2,25.7,00.0,35.9,29.1,28.9,-001.5,0014.32,0010.14,0009.74
2022-10-05 00:17:00,,0830.1,5.00,0.00,27.2,25.7,00.0,35.9,29.1,28.8,-001.6,0014.33,0010.16,0009.75
2022-10-05 00:18:00,,0830.1,5.01,0.00,27.2,25.7,00.0,35.9,29.1,29.1,-001.7,0014.30,0010.17,0009.78
2022-10-05 00:19:00,,0830.1,4.99,0.00,27.2,25.7,00.0,35.9,29.1,29.1,-001.7,0014.35,0010.21,0009.81
2022-10-05 00:20:00,,0830.1,5.01,0.00,27.2,25.7,00.0,35.9,29.1,29.0,-001.8,0014.47,0010.22,0009.81
2022-10-05 00:21:00,,0830.2,4.99,0.00,27.2,25.7,00.0,35.9,29.1,28.9,-001.7,0015.17,0010.20,0009.81
2022-10-05 00:22:00,,0830.2,5.02,0.00,27.2,25.7,00.0,35.9,29.1,28.8,-001.7,0014.80,0010.21,0009.81
2022-10-05 00:23:00,,0830.1,4.99,0.00,27.2,25.7,00.0,35.9,29.1,28.7,-001.9,0014.96,0010.22,0009.82
2022-10-05 00:24:00,,0830.1,4.99,0.00,27.2,25.8,00.0,35.9,29.1,28.6,-002.1,0015.37,0010.29,0009.85
2022-10-05 00:25:00,,0830.1,5.01,0.00,27.2,25.9,00.0,36.0,29.1,28.1,-002.3,0015.29,0010.31,0009.89
2022-10-05 00:26:00,,0830.1,5.00,0.00,27.3,26.0,00.0,36.0,29.2,27.8,-002.5,0015.72,0010.34,0009.93
2022-10-05 00:27:00,,0830.1,4.99,0.00,27.3,26.0,00.0,36.0,29.2,27.5,-002.5,0015.30,0010.39,0009.96
2022-10-05 00:28:00,,0830.1,5.00,0.00,27.3,26.1,00.0,36.0,29.2,27.6,-002.4,0015.32,0010.40,0009.98
2022-10-05 00:29:00,,0830.1,5.02,0.00,27.3,26.1,00.0,36.0,29.3,27.9,-002.5,0015.29,0010.40,0009.98
2022-10-05 00:30:00,,0830.2,5.00,0.00,27.4,26.2,00.0,36.0,29.3,27.8,-002.5,0015.38,0010.41,0009.99
2022-10-05 00:31:00,,0830.1,5.00,0.00,27.4,26.2,00.0,36.0,29.3,27.7,-002.7,0015.34,0010.44,0010.03
2022-10-05 00:32:00,,0830.1,4.99,0.00,27.4,26.2,00.0,36.0,29.3,27.7,-002.8,0014.64,0010.48,0010.06
2022-10-05 00:33:00,,0830.2,5.01,0.00,27.4,26.2,00.0,36.1,29.3,27.6,-002.9,0015.12,0010.51,0010.09
2022-10-05 00:34:00,,0830.2,5.01,0.00,27.4,26.2,00.0,36.1,29.4,27.5,-002.6,0015.63,0010.58,0010.13
2022-10-05 00:35:00,,0830.2,5.00,0.00,27.4,26.3,00.0,36.1,29.4,27.4,-002.5,0015.55,0010.58,0010.15
2022-10-05 00:36:00,,0830.2,4.99,0.00,27.5,26.3,00.0,36.1,29.4,27.4,-002.5,0015.67,0010.59,0010.15
2022-10-05 00:37:00,,0830.1,5.01,0.00,27.5,26.3,00.0,36.1,29.4,27.4,-002.4,0015.17,0010.60,0010.17
2022-10-05 00:38:00,,0830.1,4.99,0.00,27.5,26.3,00.0,36.1,29.5,27.4,-002.1,0014.74,0010.55,0010.17
2022-10-05 00:39:00,,0830.1,4.99,0.00,27.5,26.3,00.0,36.1,29.5,27.3,-001.9,0014.71,0010.56,0010.19
2022-10-05 00:40:00,,0830.1,4.99,0.00,27.6,26.4,00.0,36.2,29.5,27.3,-001.9,0014.73,0010.59,0010.22
2022-10-05 00:41:00,,0830.1,5.02,0.00,27.6,26.4,00.0,36.2,29.5,27.4,-002.2,0014.71,0010.62,0010.25
2022-10-05 00:42:00,,0830.2,4.99,0.00,27.6,26.5,00.0,36.2,29.6,27.4,-002.2,0014.66,0010.63,0010.26
2022-10-05 00:43:00,,0830.2,5.00,0.00,27.6,26.5,00.0,36.2,29.6,27.3,-002.0,0014.65,0010.67,0010.30
2022-10-05 00:44:00,,0830.3,5.00,0.00,27.6,26.6,00.0,36.2,29.6,27.2,-002.0,0014.19,0010.71,0010.32
2022-10-05 00:45:00,,0830.2,5.01,0.00,27.7,26.6,00.0,36.2,29.6,27.2,-002.3,0013.62,0010.68,0010.31
2022-10-05 00:46:00,,0830.3,5.00,0.00,27.7,26.6,00.0,36.3,29.6,27.1,-002.5,0013.45,0010.69,0010.32
2022-10-05 00:47:00,,0830.3,4.99,0.00,27.7,26.5,00.0,36.3,29.6,27.1,-002.5,0013.35,0010.70,0010.34
2022-10-05 00:48:00,,0830.3,5.01,0.00,27.7,26.5,00.0,36.3,29.6,27.0,-002.7,0013.45,0010.72,0010.35
2022-10-05 00:49:00,,0830.4,5.01,0.00,27.7,26.5,00.0,36.3,29.6,27.0,-003.0,0014.18,0010.76,0010.37
2022-10-05 00:50:00,,0830.5,4.99,0.00,27.7,26.3,00.0,36.3,29.6,27.0,-003.1,0014.49,0010.76,0010.38
2022-10-05 00:51:00,,0830.5,5.01,0.00,27.7,26.1,00.0,36.3,29.5,27.1,-003.2,0015.08,0010.81,0010.39
2022-10-05 00:52:00,,0830.5,5.00,0.00,27.6,26.0,00.0,36.3,29.4,27.2,-002.9,0015.12,0010.83,0010.40
2022-10-05 00:53:00,,0830.5,5.00,0.00,27.6,26.0,00.0,36.3,29.4,27.2,-002.8,0015.14,0010.86,0010.42
2022-10-05 00:54:00,,0830.4,4.99,0.00,27.6,25.9,00.0,36.3,29.4,27.3,-002.9,0015.10,0010.84,0010.41
2022-10-05 00:55:00,,0830.4,5.00,0.00,27.6,25.9,00.0,36.3,29.4,27.3,-002.9,0015.10,0010.85,0010.41
2022-10-05 00:56:00,,0830.5,5.01,0.00,27.5,25.8,00.0,36.3,29.4,27.3,-002.7,0015.09,0010.86,0010.43
2022-10-05 00:57:00,,0830.5,4.99,0.00,27.5,25.8,00.0,36.3,29.4,27.3,-002.5,0015.02,0010.85,0010.44
2022-10-05 00:58:00,,0830.5,5.01,0.00,27.5,25.9,00.0,36.3,29.4,27.3,-002.4,0015.62,0010.88,0010.45
2022-10-05 00:59:00,,0830.5,5.00,0.00,27.5,26.0,00.0,36.3,29.4,27.3,-002.3,0015.68,0010.89,0010.46
